Previsão horária em Abegondo

Hoje, 16 Maio, Domingo

Tempo Temperatura Precipitação Vento Pressão Humidade
00:00 +15°C° 0.2 mm 4 m/s 742 mmHg 98%
01:00 +14°C° 0.2 mm 4 m/s 742 mmHg 98%
02:00 +14°C° 0.2 mm 3 m/s 742 mmHg 98%
03:00 +13°C° 0.1 mm 3 m/s 743 mmHg 98%
04:00 +12°C° 0.1 mm 3 m/s 743 mmHg 97%
05:00 +12°C° 0 mm 3 m/s 743 mmHg 97%
06:00 +13°C° 0.1 mm 3 m/s 743 mmHg 92%
07:00 +13°C° 0.1 mm 4 m/s 744 mmHg 87%
08:00 +14°C° 0.1 mm 4 m/s 744 mmHg 82%
09:00 +15°C° 0.1 mm 4 m/s 745 mmHg 75%
10:00 +15°C° 0.1 mm 4 m/s 745 mmHg 68%
11:00 +17°C° 0.1 mm 4 m/s 745 mmHg 61%
12:00 +16°C° 0 mm 5 m/s 745 mmHg 57%
13:00 +17°C° 0 mm 5 m/s 745 mmHg 54%
14:00 +17°C° 0 mm 5 m/s 745 mmHg 50%
15:00 +17°C° 0 mm 4 m/s 746 mmHg 55%
16:00 +15°C° 0 mm 4 m/s 746 mmHg 60%
17:00 +14°C° 0 mm 3 m/s 746 mmHg 65%
18:00 +12°C° 0 mm 3 m/s 747 mmHg 75%
19:00 +10°C° 0 mm 2 m/s 747 mmHg 85%
20:00 +8°C° 0 mm 2 m/s 748 mmHg 95%
21:00 +8°C° 0 mm 2 m/s 748 mmHg 96%
22:00 +8°C° 0 mm 2 m/s 748 mmHg 97%
23:00 +8°C° 0 mm 2 m/s 748 mmHg 98%

Amanhã, 17 Maio, Segunda-feira

Tempo Temperatura Precipitação Vento Pressão Humidade
00:00 +8°C° 0 mm 2 m/s 748 mmHg 98%
01:00 +9°C° 0 mm 1 m/s 748 mmHg 98%
02:00 +9°C° 0 mm 1 m/s 748 mmHg 98%
03:00 +9°C° 0 mm 1 m/s 748 mmHg 97%
04:00 +9°C° 0 mm 1 m/s 748 mmHg 96%
05:00 +10°C° 0 mm 1 m/s 748 mmHg 95%
06:00 +12°C° 0 mm 1 m/s 749 mmHg 83%
07:00 +13°C° 0 mm 1 m/s 749 mmHg 71%
08:00 +15°C° 0 mm 1 m/s 749 mmHg 58%
09:00 +16°C° 0 mm 2 m/s 749 mmHg 53%
10:00 +17°C° 0 mm 2 m/s 748 mmHg 48%
11:00 +18°C° 0 mm 2 m/s 748 mmHg 43%
12:00 +19°C° 0 mm 2 m/s 748 mmHg 45%
13:00 +19°C° 0 mm 2 m/s 748 mmHg 46%
14:00 +19°C° 0 mm 3 m/s 748 mmHg 47%
15:00 +17°C° 0 mm 2 m/s 748 mmHg 55%
16:00 +15°C° 0 mm 2 m/s 748 mmHg 63%
17:00 +14°C° 0 mm 2 m/s 748 mmHg 71%
18:00 +13°C° 0 mm 1 m/s 748 mmHg 76%
19:00 +12°C° 0 mm 1 m/s 748 mmHg 82%
20:00 +11°C° 0 mm 0 m/s 748 mmHg 87%
21:00 +11°C° 0.3 mm 1 m/s 748 mmHg 90%
22:00 +11°C° 0.3 mm 1 m/s 747 mmHg 94%
23:00 +11°C° 0.3 mm 1 m/s 747 mmHg 97%

Depois de amanhã, 18 Maio, Terça-feira

Tempo Temperatura Precipitação Vento Pressão Humidade
00:00 +11°C° 0.4 mm 1 m/s 747 mmHg 97%
01:00 +10°C° 0.4 mm 0 m/s 746 mmHg 97%
02:00 +10°C° 0.4 mm 0 m/s 746 mmHg 98%
03:00 +10°C° 0.3 mm 0 m/s 746 mmHg 98%
04:00 +10°C° 0.3 mm 0 m/s 747 mmHg 98%
05:00 +11°C° 0.3 mm 0 m/s 747 mmHg 99%
06:00 +11°C° 0 mm 0 m/s 747 mmHg 97%
07:00 +13°C° 0 mm 1 m/s 748 mmHg 95%
08:00 +14°C° 0 mm 1 m/s 748 mmHg 93%
09:00 +15°C° 0.1 mm 1 m/s 749 mmHg 81%
10:00 +16°C° 0.1 mm 2 m/s 749 mmHg 70%
11:00 +18°C° 0.1 mm 2 m/s 749 mmHg 59%
12:00 +18°C° 0 mm 3 m/s 750 mmHg 57%
13:00 +18°C° 0 mm 3 m/s 750 mmHg 56%
14:00 +18°C° 0 mm 3 m/s 750 mmHg 54%
15:00 +17°C° 0 mm 3 m/s 750 mmHg 58%
16:00 +16°C° 0 mm 3 m/s 751 mmHg 62%
17:00 +14°C° 0 mm 3 m/s 751 mmHg 66%
18:00 +14°C° 0 mm 2 m/s 751 mmHg 77%
19:00 +12°C° 0 mm 1 m/s 752 mmHg 87%
20:00 +10°C° 0 mm 1 m/s 752 mmHg 98%
21:00 +10°C° 0 mm 1 m/s 752 mmHg 96%
22:00 +10°C° 0 mm 1 m/s 753 mmHg 95%
23:00 +10°C° 0 mm 1 m/s 753 mmHg 94%

19 Maio, Quarta-feira

Tempo Temperatura Precipitação Vento Pressão Humidade
00:00 +10°C° 0 mm 1 m/s 753 mmHg 91%
01:00 +10°C° 0 mm 1 m/s 752 mmHg 88%
02:00 +10°C° 0 mm 1 m/s 752 mmHg 85%
03:00 +13°C° 0 mm 1 m/s 754 mmHg 67%
04:00 +12°C° 0 mm 1 m/s 753 mmHg 78%
05:00 +10°C° 0 mm 1 m/s 753 mmHg 89%
06:00 +12°C° 0 mm 1 m/s 753 mmHg 73%
07:00 +14°C° 0 mm 1 m/s 754 mmHg 64%
08:00 +15°C° 0 mm 1 m/s 754 mmHg 55%
09:00 +19°C° 0 mm 1 m/s 753 mmHg 42%
10:00 +19°C° 0 mm 2 m/s 753 mmHg 38%
11:00 +20°C° 0 mm 2 m/s 753 mmHg 34%
12:00 +12°C° 0 mm 1 m/s 754 mmHg 75%
13:00 +15°C° 0 mm 2 m/s 754 mmHg 60%
14:00 +18°C° 0 mm 3 m/s 754 mmHg 45%
15:00 +17°C° 0 mm 3 m/s 754 mmHg 48%
16:00 +16°C° 0 mm 3 m/s 754 mmHg 51%
17:00 +15°C° 0 mm 2 m/s 754 mmHg 54%
18:00 +13°C° 0 mm 2 m/s 755 mmHg 66%
19:00 +10°C° 0 mm 2 m/s 755 mmHg 78%
20:00 +9°C° 0 mm 1 m/s 756 mmHg 90%
21:00 +9°C° 0 mm 1 m/s 755 mmHg 91%
22:00 +8°C° 0 mm 1 m/s 755 mmHg 93%
23:00 +8°C° 0 mm 1 m/s 755 mmHg 94%

20 Maio, Quinta-feira

Tempo Temperatura Precipitação Vento Pressão Humidade
00:00 +8°C° 0 mm 1 m/s 754 mmHg 93%
01:00 +8°C° 0 mm 1 m/s 754 mmHg 92%
02:00 +7°C° 0 mm 1 m/s 754 mmHg 90%
03:00 +8°C° 0 mm 1 m/s 754 mmHg 88%
04:00 +8°C° 0 mm 1 m/s 754 mmHg 85%
05:00 +8°C° 0 mm 1 m/s 753 mmHg 83%
06:00 +11°C° 0 mm 1 m/s 753 mmHg 68%
07:00 +14°C° 0 mm 1 m/s 753 mmHg 54%
08:00 +18°C° 0 mm 1 m/s 752 mmHg 39%
09:00 +20°C° 0 mm 1 m/s 752 mmHg 37%
10:00 +21°C° 0 mm 2 m/s 752 mmHg 34%
11:00 +24°C° 0 mm 2 m/s 751 mmHg 32%
12:00 +24°C° 0 mm 2 m/s 751 mmHg 34%
13:00 +24°C° 0 mm 2 m/s 750 mmHg 36%
14:00 +24°C° 0 mm 2 m/s 750 mmHg 38%
15:00 +23°C° 0 mm 2 m/s 750 mmHg 45%
16:00 +21°C° 0 mm 1 m/s 750 mmHg 51%
17:00 +20°C° 0 mm 1 m/s 750 mmHg 57%
18:00 +18°C° 0 mm 1 m/s 750 mmHg 64%
19:00 +15°C° 0 mm 1 m/s 750 mmHg 70%
20:00 +13°C° 0 mm 1 m/s 750 mmHg 76%
21:00 +12°C° 0 mm 1 m/s 750 mmHg 75%
22:00 +11°C° 0 mm 1 m/s 750 mmHg 74%
23:00 +11°C° 0 mm 1 m/s 750 mmHg 73%

21 Maio, Sexta-feira

Tempo Temperatura Precipitação Vento Pressão Humidade
00:00 +10°C° 0 mm 1 m/s 750 mmHg 72%
01:00 +10°C° 0 mm 1 m/s 749 mmHg 71%
02:00 +10°C° 0 mm 1 m/s 749 mmHg 70%
03:00 +11°C° 0 mm 1 m/s 749 mmHg 72%
04:00 +11°C° 0 mm 1 m/s 749 mmHg 74%
05:00 +12°C° 0 mm 1 m/s 749 mmHg 76%
06:00 +14°C° 0 mm 1 m/s 749 mmHg 71%
07:00 +16°C° 0 mm 2 m/s 750 mmHg 66%
08:00 +17°C° 0 mm 2 m/s 750 mmHg 61%
09:00 +18°C° 0 mm 2 m/s 750 mmHg 55%
10:00 +19°C° 0 mm 3 m/s 749 mmHg 48%
11:00 +20°C° 0 mm 3 m/s 749 mmHg 41%
12:00 +20°C° 0 mm 3 m/s 749 mmHg 42%
13:00 +20°C° 0 mm 3 m/s 749 mmHg 43%
14:00 +19°C° 0 mm 3 m/s 749 mmHg 44%
15:00 +18°C° 0 mm 3 m/s 749 mmHg 49%
16:00 +17°C° 0 mm 3 m/s 749 mmHg 55%
17:00 +16°C° 0 mm 3 m/s 749 mmHg 61%
18:00 +14°C° 0 mm 2 m/s 749 mmHg 71%
19:00 +12°C° 0 mm 1 m/s 749 mmHg 82%
20:00 +11°C° 0 mm 1 m/s 749 mmHg 93%
21:00 +10°C° 0 mm 1 m/s 749 mmHg 95%
22:00 +9°C° 0 mm 1 m/s 749 mmHg 96%
23:00 +9°C° 0 mm 1 m/s 748 mmHg 98%
Mostrar mais

Necessitamos do seu Consentimento

A Meteoprog e os seus Fornecedores de Serviços podem armazenar e aceder a dados pessoais como cookies, identificadores do dispositivo ou outras tecnologias semelhantes existentes no seu dispositivo e processar estes dados para personalizar conteúdos e anúncios, assim como funcionalidades nas redes sociais e análise de tráfego.

  • Armazenar e/ou aceder a informações no seu dispositivo

    Os cookies, identificadores do dispositivo ou outras informações podem ser armazenados ou acedidos no seu dispositivo, para os fins acima indicados.

  • Anúncios e conteúdos personalizados, medição de anúncios e conteúdos, dados sobre o público-alvo e desenvolvimento de produtos

    Os anúncios e os conteúdos podem ser personalizados com base num perfil. Podem ser adicionados dados adicionais para uma maior personalização dos anúncios e dos conteúdos. A eficácia dos anúncios e dos conteúdos pode ser medida. Podem ser obtidas informações sobre o público que visualizou os anúncios e os conteúdos. Estes dados podem ser usados para desenvolver ou melhorar sistemas, softwares ou a experiência do utilizador.

Ao clicar em "Eu concordo”, permitirá o uso de cookies, identificadores do dispositivo e web beacons mencionados ou outras tecnologias semelhantes. As configurações do navegador do seu dispositivo podem ser alteradas.

Para certos fins, podem ser invocados interesses legítimos ao invés de consentimento. Pode ler mais informação sobre este assunto na nossa Política de Privacidade e Cookies.